TimeCDT,TemperatureF,Dew PointF,Humidity,Sea Level PressureIn,VisibilityMPH,Wind Direction,Wind SpeedMPH,Gust SpeedMPH,PrecipitationIn,Events,Conditions,WindDirDegrees,DateUTC
12:53 AM,80.1,66.9,64,29.96,10.0,SSW,8.1,-,N/A,,Clear,200,2013-07-09 05:53:00
1:53 AM,79.0,66.9,66,29.95,10.0,South,6.9,-,N/A,,Clear,190,2013-07-09 06:53:00
2:53 AM,78.1,66.9,68,29.96,10.0,South,8.1,-,N/A,,Clear,190,2013-07-09 07:53:00
3:53 AM,77.0,66.9,71,29.95,10.0,South,8.1,-,N/A,,Clear,190,2013-07-09 08:53:00
4:53 AM,77.0,68.0,74,29.96,10.0,SSW,6.9,-,N/A,,Clear,200,2013-07-09 09:53:00
5:53 AM,77.0,68.0,74,29.96,10.0,SSW,8.1,-,N/A,,Clear,210,2013-07-09 10:53:00
6:53 AM,77.0,69.1,76,29.99,10.0,SW,3.5,-,N/A,,Clear,220,2013-07-09 11:53:00
7:53 AM,79.0,70.0,74,29.97,10.0,South,4.6,-,N/A,,Clear,190,2013-07-09 12:53:00
8:53 AM,80.1,70.0,71,29.97,10.0,SSW,10.4,-,N/A,,Clear,200,2013-07-09 13:53:00
9:53 AM,81.0,70.0,69,29.95,10.0,South,11.5,20.7,N/A,,Clear,180,2013-07-09 14:53:00
10:53 AM,82.9,72.0,69,29.95,10.0,South,8.1,-,N/A,,Clear,180,2013-07-09 15:53:00
11:53 AM,90.0,73.0,57,29.94,10.0,South,12.7,-,N/A,,Clear,180,2013-07-09 16:53:00
12:53 PM,93.0,72.0,50,29.93,10.0,South,12.7,-,N/A,,Clear,180,2013-07-09 17:53:00
1:53 PM,95.0,71.1,46,29.91,10.0,South,13.8,-,N/A,,Clear,190,2013-07-09 18:53:00
2:53 PM,96.1,71.1,44,29.89,10.0,South,13.8,20.7,N/A,,Clear,190,2013-07-09 19:53:00
3:53 PM,96.1,70.0,43,29.88,10.0,South,11.5,24.2,N/A,,Clear,190,2013-07-09 20:53:00
4:53 PM,97.0,70.0,41,29.86,10.0,SSW,12.7,19.6,N/A,,Clear,200,2013-07-09 21:53:00
5:53 PM,96.1,70.0,43,29.85,10.0,SSW,18.4,24.2,N/A,,Clear,200,2013-07-09 22:53:00
6:53 PM,93.9,70.0,46,29.84,10.0,SSW,11.5,19.6,N/A,,Clear,200,2013-07-09 23:53:00
7:53 PM,91.9,70.0,48,29.83,10.0,South,8.1,-,N/A,,Partly Cloudy,190,2013-07-10 00:53:00
8:53 PM,88.0,70.0,55,29.85,10.0,South,8.1,-,N/A,,Clear,180,2013-07-10 01:53:00
9:53 PM,87.1,70.0,57,29.85,10.0,South,9.2,-,N/A,,Clear,190,2013-07-10 02:53:00
10:53 PM,86.0,70.0,59,29.87,10.0,SSW,10.4,-,N/A,,Clear,200,2013-07-10 03:53:00
11:53 PM,86.0,70.0,59,29.88,10.0,SSW,11.5,-,N/A,,Clear,210,2013-07-10 04:53:00